Weather in Tenby

United Kingdom     51°40′43″N   4°42′44″W
В апреле 2022 года жителям России запретили посещать сайт meteo.paraplan.net по решению Генеральной прокуратуры. Аудитория сайта уменьшилась в 10 раз. Владельцы сайта не видят смысла в поддержке погодного сервера в таких условиях. Сайт будет закрыт в октябре.
temp.,
°C
wind,
m/s
gust,
m/s
humid.,
%
clouds,
%
prec.,
mm/h
press.,
hPa
HPBL,
m
25 september, sun
sun2501:00+11n477832 0.1 1023210
04:00+9nne3488100 0.0 102269
07:00+8n228590 0.0 102349
10:00+13nnw4675100 0.1 1023806
13:00+14nw4463100 0.3 10211202
16:00+14wnw5660100 0.0 1020993
19:00+12w4877100 0.0 1018356
22:00+14w8117999 0.0 1016804
26 september, mon
mon2601:00+14w91381100 0.1 1012770
04:00+14w101593100 0.3 1008956
07:00+12nw9158197 0.4 1007924
10:00+12nnw81369100 0.1 10081369
13:00+14nnw91261100 0.2 10091622
16:00+13nw61060100 0.0 10091691
19:00+12nw61065100 0.1 1009843
22:00+12nw712696 0.0 1009738
27 september, tue
tue2701:00+11wnw7127812 0.1 1008721
04:00+11nw8127776 0.1 1007845
07:00+12nw71169100 0.2 10061017
10:00+13nw71162100 0.1 10061665
13:00+14nw9126033 0.1 10051607
16:00+13nw81272100 0.1 10031311
19:00+11nw61079100 0.3 1003688
22:00+11nw51083100 0.1 1003421
28 september, wed
wed2801:00+10nnw61181100 0.3 1004454
04:00+11nnw61069100 0.1 1004821
07:00+10nw5977100 0.1 1004487
10:00+13nw686831 0.1 10051167
13:00+14nnw786299 0.2 10051426
16:00+14nnw786149 0.1 10051432
19:00+11nnw4778100 0.1 1006311
22:00+9nnw358371 0.0 100696
29 september, thu
thu2901:00+10nnw2381100 0.0 100658
04:00+9nnw228699 0.0 100651
07:00+9nnw358986 0.1 1006109
10:00+14n69675 0.0 10071097
13:00+15n896147 0.0 10081439
16:00+15n796815 0.1 10091128
19:00+12n610815 0.1 1011446
22:00+11nnw49917 0.0 1013215